This demonstration page uses our WeatherBlox Daily Observations layout. Learn more.

Left ArrowRight Arrow

38.80484, -77.04692

Hourly Observations for August 31, 2021

Temp ( °F °C ) Dew Point ( °F °C ) Humidity (%) Winds ( mph kmh ) Pressure ( in mb ) Visibility ( mi km ) Precip ( " mm )
12:52 am 00:52 Mostly Cloudy 76 24.4 69 20.6 79 79 SW 6 9 29.85 1011 10 16 N/A
1:52 am 01:52 Partly Cloudy 77 25 69 20.6 77 77 WSW 5 7 29.84 1011 10 16 N/A
2:52 am 02:52 Partly Cloudy 75 23.9 69 20.6 82 82 SSW 5 7 29.83 1010 10 16 N/A
3:52 am 03:52 Partly Cloudy 75 23.9 69 20.6 82 82 N N/A 29.83 1010 10 16 N/A
4:52 am 04:52 Partly Cloudy 75 23.9 69 20.6 82 82 N N/A 29.82 1010 10 16 N/A
5:52 am 05:52 Mostly Cloudy 76 24.4 68 20 77 77 N N/A 29.83 1010 10 16 N/A
6:52 am 06:52 Mostly Cloudy 75 23.9 68 20 79 79 NNW 6 9 29.84 1011 9 14 N/A
7:52 am 07:52 Cloudy 78 25.6 69 20.6 74 74 NNW 8 13 29.85 1011 9 14 N/A
8:52 am 08:52 Mostly Cloudy 80 26.7 70 21.1 71 71 N 8 13 29.85 1011 9 14 N/A
9:52 am 09:52 Cloudy 83 28.3 71 21.7 67 67 N 6 9 29.85 1011 7 11 N/A
10:52 am 10:52 Cloudy 85 29.4 70 21.1 61 61 VRB 3 6 29.85 1011 10 16 N/A
11:52 am 11:52 Cloudy 86 30 69 20.6 57 57 N N/A 29.84 1011 10 16 N/A
12:52 pm 12:52 Cloudy 86 30 70 21.1 59 59 N N/A 29.83 1010 10 16 N/A
1:52 pm 13:52 Cloudy 85 29.4 70 21.1 61 61 NNW 6 9 29.83 1010 8 13 N/A
2:52 pm 14:52 Cloudy 85 29.4 70 21.1 61 61 NE 7 11 29.80 1009 10 16 N/A
3:52 pm 15:52 Cloudy 85 29.4 71 21.7 63 63 E 3 6 29.80 1009 10 16 N/A
4:52 pm 16:52 Cloudy 84 28.9 71 21.7 65 65 N N/A 29.80 1009 10 16 N/A
5:52 pm 17:52 Cloudy 84 28.9 71 21.7 65 65 ENE 5 7 29.78 1008 10 16 N/A
6:52 pm 18:52 Cloudy 83 28.3 70 21.1 65 65 SSW 3 6 29.80 1009 10 16 N/A
7:52 pm 19:52 Cloudy 82 27.8 69 20.6 65 65 SSE 3 6 29.80 1009 10 16 N/A
8:52 pm 20:52 Cloudy with Light Rain 81 27.2 73 22.8 77 77 ESE 7 11 29.81 1010 10 16 0.00 0.00
9:52 pm 21:52 Cloudy with Light Rain 80 26.7 72 22.2 76 76 ESE 9 15 29.80 1009 10 16 0.00 0.00
10:52 pm 22:52 Cloudy with Light Rain 79 26.1 72 22.2 79 79 N N/A 29.80 1009 10 16 0.00 0.00
11:52 pm 23:52 Cloudy 79 26.1 72 22.2 79 79 N N/A 29.80 1009 10 16 0.00 0.00

Powered by AerisWeather